2021/12/29 23:32:06+0000,-38.85,-44.38,-33.97,-48.47,-48.21,-52.24
2021/12/29 23:32:58+0000,-38.42,-44.57,-33.73,-47.86,-48.54,-52.54
2021/12/29 23:33:50+0000,-39.28,-43.75,-34.14,-50.11,-47.92,-52.72
2021/12/29 23:34:42+0000,-38.45,-43.91,-34.11,-48.12,-48.26,-51.95
2021/12/29 23:35:34+0000,-39.48,-44.60,-33.58,-49.13,-47.65,-52.68
2021/12/29 23:36:26+0000,-39.60,-44.72,-34.02,-48.60,-48.71,-52.02
2021/12/29 23:37:18+0000,-39.18,-43.89,-33.99,-47.74,-48.67,-52.35
2021/12/29 23:38:10+0000,-39.18,-44.72,-34.41,-46.89,-48.21,-52.66
2021/12/29 23:39:02+0000,-38.68,-44.44,-34.33,-47.67,-48.45,-52.24
2021/12/29 23:39:54+0000,-39.21,-44.13,-34.90,-47.99,-48.11,-52.27
2021/12/29 23:40:46+0000,-38.88,-44.66,-34.62,-47.82,-48.32,-52.06
2021/12/29 23:41:50+0000,-39.21,-44.45,-34.74,-48.90,-47.49,-52.23
2021/12/29 23:42:42+0000,-38.96,-44.54,-34.64,-47.59,-48.94,-52.36
2021/12/29 23:43:34+0000,-37.94,-44.22,-34.51,-49.04,-48.45,-52.37
2021/12/29 23:44:26+0000,-39.36,-43.94,-34.57,-47.70,-48.47,-52.31
2021/12/29 23:45:18+0000,-39.64,-44.75,-34.26,-45.61,-47.66,-52.17
2021/12/29 23:46:10+0000,-38.70,-43.84,-33.71,-44.65,-48.21,-51.88
2021/12/29 23:47:02+0000,-38.36,-43.94,-34.43,-48.38,-48.52,-52.09
2021/12/29 23:47:54+0000,-38.64,-44.74,-33.84,-48.20,-47.61,-52.74
2021/12/29 23:48:46+0000,-38.00,-43.82,-34.21,-45.24,-48.65,-51.94
2021/12/29 23:49:38+0000,-39.13,-44.58,-33.69,-47.26,-47.99,-52.77
2021/12/29 23:50:30+0000,-38.94,-42.95,-34.35,-48.56,-47.83,-52.68
2021/12/29 23:51:29+0000,-38.84,-43.87,-33.86,-47.51,-47.93,-52.62
2021/12/29 23:52:21+0000,-37.91,-44.97,-34.51,-48.75,-47.69,-52.45
2021/12/29 23:53:13+0000,-39.33,-44.32,-34.01,-47.42,-47.60,-51.78
2021/12/29 23:54:05+0000,-38.76,-44.02,-34.05,-49.42,-48.30,-52.19
2021/12/29 23:54:57+0000,-36.72,-44.77,-33.91,-48.20,-48.36,-52.34
2021/12/29 23:55:49+0000,-37.79,-44.16,-33.56,-48.08,-48.20,-52.03
2021/12/29 23:56:41+0000,-39.14,-43.50,-33.06,-45.76,-47.57,-51.69
2021/12/29 23:57:33+0000,-39.28,-43.46,-33.63,-47.99,-48.06,-52.40
2021/12/29 23:58:25+0000,-39.05,-43.71,-33.24,-47.68,-47.99,-51.69
2021/12/29 23:59:17+0000,-39.12,-44.33,-33.34,-47.06,-47.75,-52.47
2021/12/30 00:00:10+0000,-39.88,-42.94,-34.02,-47.31,-48.07,-52.07
2021/12/30 00:01:14+0000,-39.47,-44.29,-34.04,-47.02,-47.85,-51.49
2021/12/30 00:02:06+0000,-40.28,-44.15,-34.06,-46.36,-48.11,-52.37
2021/12/30 00:02:58+0000,-39.42,-43.48,-34.30,-47.68,-48.84,-52.19
2021/12/30 00:03:50+0000,-39.31,-44.67,-33.75,-47.60,-47.77,-52.07
2021/12/30 00:04:42+0000,-39.12,-43.60,-34.02,-45.00,-47.84,-52.03
2021/12/30 00:05:34+0000,-39.43,-44.69,-33.89,-49.05,-48.05,-52.36
2021/12/30 00:06:26+0000,-40.15,-43.63,-34.64,-47.96,-48.40,-52.19
2021/12/30 00:07:18+0000,-39.29,-41.72,-33.76,-49.09,-48.84,-52.28
2021/12/30 00:08:10+0000,-39.10,-42.58,-33.12,-45.70,-48.02,-52.62
2021/12/30 00:09:02+0000,-39.54,-43.96,-33.28,-47.76,-48.40,-52.40
2021/12/30 00:09:54+0000,-39.28,-43.74,-34.06,-46.30,-48.21,-51.95
2021/12/30 00:10:46+0000,-39.60,-42.88,-33.54,-42.32,-48.41,-52.00
2021/12/30 00:11:50+0000,-37.02,-44.96,-34.14,-45.49,-50.21,-52.62
2021/12/30 00:12:42+0000,-39.03,-43.07,-33.40,-44.74,-49.93,-52.36
2021/12/30 00:13:34+0000,-39.67,-44.50,-33.71,-48.24,-49.90,-52.70
2021/12/30 00:14:26+0000,-36.64,-44.45,-33.95,-46.39,-50.46,-52.10
2021/12/30 00:15:18+0000,-34.32,-43.97,-34.06,-48.60,-50.02,-51.77
2021/12/30 00:16:10+0000,-39.89,-41.80,-11.46,-42.00,-49.94,-52.28
2021/12/30 00:17:02+0000,-39.08,-45.16,-11.96,-46.84,-50.58,-52.07
2021/12/30 00:17:54+0000,-37.46,-44.48,-33.00,-47.53,-50.03,-52.09
2021/12/30 00:18:46+0000,-39.29,-42.47,-34.05,-46.06,-50.21,-51.64
2021/12/30 00:19:39+0000,-39.67,-42.12,-11.29,-47.87,-50.11,-52.32
2021/12/30 00:20:31+0000,-39.11,-44.08,-12.14,-47.29,-50.10,-52.59
2021/12/30 00:21:29+0000,-39.50,-43.96,-11.94,-46.95,-50.11,-52.10
2021/12/30 00:22:21+0000,-39.34,-44.58,-34.52,-47.71,-50.01,-52.68
2021/12/30 00:23:13+0000,-39.16,-45.36,-33.79,-47.53,-49.97,-52.31
2021/12/30 00:24:05+0000,-39.27,-45.63,-33.08,-47.28,-50.74,-52.15
2021/12/30 00:24:57+0000,-39.46,-44.94,-34.41,-47.96,-50.75,-52.14
2021/12/30 00:25:50+0000,-39.24,-45.83,-34.12,-47.15,-50.43,-52.17
2021/12/30 00:26:42+0000,-31.20,-45.17,-34.10,-46.72,-50.44,-52.37
2021/12/30 00:27:34+0000,-38.43,-45.80,-34.06,-48.60,-50.42,-52.74
2021/12/30 00:28:26+0000,-39.03,-45.18,-34.50,-47.60,-49.86,-51.82
2021/12/30 00:29:18+0000,-38.55,-45.00,-34.18,-47.90,-49.54,-51.76
2021/12/30 00:30:10+0000,-37.90,-43.98,-33.92,-47.63,-50.01,-51.53
2021/12/30 00:31:08+0000,-38.30,-44.87,-33.40,-47.28,-50.59,-51.76
2021/12/30 00:32:00+0000,-39.25,-45.92,-33.86,-48.11,-49.89,-52.04
2021/12/30 00:32:52+0000,-38.49,-45.99,-34.80,-48.64,-50.30,-51.92
2021/12/30 00:33:45+0000,-39.07,-44.13,-34.80,-47.42,-50.41,-51.98
2021/12/30 00:34:37+0000,-39.17,-45.67,-33.56,-48.03,-49.31,-52.64
2021/12/30 00:35:29+0000,-38.58,-44.92,-34.88,-48.02,-50.89,-52.37
2021/12/30 00:36:21+0000,-39.09,-44.58,-35.01,-48.50,-49.87,-52.38
2021/12/30 00:37:13+0000,-39.16,-44.22,-34.37,-46.54,-49.44,-52.14
2021/12/30 00:38:05+0000,-38.27,-44.07,-11.40,-45.14,-49.50,-52.28
2021/12/30 00:38:57+0000,-35.88,-45.88,-34.50,-46.27,-50.14,-52.38
2021/12/30 00:39:49+0000,-38.10,-43.97,-34.61,-49.08,-49.38,-51.79
2021/12/30 00:40:41+0000,-38.61,-45.19,-11.74,-44.85,-50.26,-52.40
2021/12/30 00:41:39+0000,-38.28,-44.56,-11.51,-45.44,-50.25,-51.98
2021/12/30 00:42:31+0000,-37.76,-44.89,-33.92,-47.67,-49.36,-52.48
2021/12/30 00:43:23+0000,-38.14,-43.93,-34.87,-47.19,-49.15,-52.05
2021/12/30 00:44:15+0000,-38.51,-42.95,-34.80,-43.69,-50.11,-52.10
2021/12/30 00:45:07+0000,-38.83,-45.91,-34.40,-46.32,-49.78,-52.36
2021/12/30 00:45:59+0000,-37.83,-45.76,-34.56,-48.02,-49.57,-52.05
2021/12/30 00:46:51+0000,-38.72,-44.34,-34.83,-47.79,-50.22,-51.72
2021/12/30 00:47:43+0000,-39.30,-43.45,-34.42,-46.38,-49.77,-52.74
2021/12/30 00:48:35+0000,-38.11,-43.81,-34.80,-48.52,-49.42,-52.20
2021/12/30 00:49:27+0000,-38.75,-43.48,-34.21,-47.95,-49.42,-52.77
2021/12/30 00:50:20+0000,-38.53,-41.70,-34.57,-49.11,-50.02,-51.94
2021/12/30 00:51:23+0000,-38.08,-45.12,-34.53,-48.41,-49.84,-52.44
2021/12/30 00:52:15+0000,-38.97,-43.20,-34.22,-47.07,-49.76,-51.69
2021/12/30 00:53:07+0000,-38.71,-46.21,-34.69,-45.52,-49.69,-52.53
2021/12/30 00:53:59+0000,-38.81,-45.11,-35.38,-48.19,-49.33,-52.28
2021/12/30 00:54:51+0000,-38.21,-45.75,-34.12,-47.88,-49.61,-52.36
2021/12/30 00:55:43+0000,-38.45,-42.49,-34.55,-44.57,-50.25,-52.44
2021/12/30 00:56:36+0000,-38.50,-45.15,-33.98,-48.64,-50.21,-51.84
2021/12/30 00:57:28+0000,-38.76,-45.41,-34.86,-48.57,-49.88,-52.19
2021/12/30 00:58:20+0000,-38.11,-40.40,-34.49,-48.40,-49.88,-52.16
2021/12/30 00:59:12+0000,-38.10,-43.34,-33.64,-48.19,-50.22,-52.05
2021/12/30 01:00:04+0000,-38.19,-45.34,-34.03,-48.22,-49.80,-51.84
2021/12/30 01:01:02+0000,-38.77,-45.94,-33.50,-48.43,-49.94,-52.43
2021/12/30 01:01:54+0000,-37.99,-45.89,-34.07,-48.00,-50.01,-51.54
2021/12/30 01:02:46+0000,-38.83,-43.46,-34.42,-48.07,-50.27,-52.41
2021/12/30 01:03:38+0000,-38.21,-43.42,-34.52,-48.08,-49.36,-52.18
2021/12/30 01:04:30+0000,-39.19,-45.24,-35.01,-48.57,-50.57,-53.11
2021/12/30 01:05:22+0000,-39.03,-44.87,-34.78,-48.56,-50.81,-52.29
2021/12/30 01:06:14+0000,-38.15,-43.97,-34.60,-48.24,-50.69,-52.32
2021/12/30 01:07:06+0000,-38.51,-45.69,-33.77,-48.36,-50.63,-51.93
2021/12/30 01:07:58+0000,-38.37,-45.51,-34.52,-48.64,-49.98,-52.13
2021/12/30 01:08:50+0000,-38.69,-46.32,-34.52,-49.20,-49.91,-51.16
2021/12/30 01:09:42+0000,-38.78,-41.37,-34.35,-48.38,-50.68,-51.91
2021/12/30 01:10:34+0000,-38.28,-45.51,-32.48,-48.96,-50.18,-52.28
2021/12/30 01:11:33+0000,-38.35,-45.13,-33.12,-48.75,-50.78,-52.21
2021/12/30 01:12:25+0000,-39.18,-45.32,-33.86,-49.34,-50.19,-52.16
2021/12/30 01:13:17+0000,-38.65,-42.54,-34.61,-49.13,-50.73,-52.55
2021/12/30 01:14:09+0000,-38.43,-40.91,-34.13,-48.67,-50.40,-52.70
2021/12/30 01:15:01+0000,-38.53,-44.65,-34.36,-48.32,-50.67,-52.79
2021/12/30 01:15:53+0000,-38.59,-44.71,-34.72,-48.28,-50.69,-52.37
2021/12/30 01:16:45+0000,-38.14,-43.07,-34.28,-48.43,-50.30,-52.60
2021/12/30 01:17:37+0000,-38.21,-45.60,-34.59,-49.31,-50.15,-52.56
2021/12/30 01:18:29+0000,-39.04,-44.45,-34.32,-48.91,-50.73,-52.49
2021/12/30 01:19:21+0000,-38.22,-46.13,-35.14,-48.15,-50.49,-52.84
2021/12/30 01:20:13+0000,-38.51,-43.47,-35.10,-48.65,-51.04,-52.84
2021/12/30 01:21:12+0000,-38.11,-44.14,-34.23,-48.84,-50.31,-52.41
2021/12/30 01:22:04+0000,-38.82,-44.33,-33.88,-48.94,-50.61,-52.48
2021/12/30 01:22:56+0000,-39.14,-44.82,-34.86,-48.70,-51.12,-52.18
2021/12/30 01:23:48+0000,-38.76,-41.55,-33.97,-48.93,-51.04,-52.03
2021/12/30 01:24:41+0000,-39.14,-43.36,-34.58,-48.49,-50.89,-52.39
2021/12/30 01:25:33+0000,-37.36,-45.46,-34.27,-48.73,-51.00,-52.12
2021/12/30 01:26:25+0000,-38.49,-44.85,-34.13,-47.19,-50.35,-52.07
2021/12/30 01:27:17+0000,-38.79,-43.29,-34.99,-48.80,-50.38,-52.05
2021/12/30 01:28:09+0000,-38.01,-44.12,-34.14,-48.77,-50.53,-52.08
2021/12/30 01:29:01+0000,-37.65,-44.26,-33.51,-48.46,-51.04,-52.11
2021/12/30 01:29:53+0000,-38.53,-44.51,-34.33,-48.54,-50.28,-52.01
2021/12/30 01:30:45+0000,-37.60,-42.62,-33.14,-49.11,-50.01,-51.41
2021/12/30 01:31:48+0000,-38.42,-42.45,-34.10,-48.36,-50.35,-51.94
2021/12/30 01:32:40+0000,-38.03,-42.53,-33.73,-47.84,-50.75,-51.39
2021/12/30 01:33:32+0000,-37.16,-42.29,-33.96,-47.79,-50.21,-51.83
2021/12/30 01:34:24+0000,-38.79,-41.92,-34.16,-47.85,-50.48,-51.20
2021/12/30 01:35:16+0000,-38.52,-43.24,-33.95,-48.79,-50.48,-51.42
2021/12/30 01:36:08+0000,-38.04,-43.89,-33.95,-48.38,-50.40,-52.03
2021/12/30 01:37:00+0000,-38.21,-41.93,-34.29,-48.73,-50.18,-51.32
2021/12/30 01:37:53+0000,-38.64,-44.90,-33.90,-48.46,-49.85,-51.52
2021/12/30 01:38:45+0000,-38.67,-42.30,-34.54,-48.48,-50.20,-51.65
2021/12/30 01:39:37+0000,-37.80,-45.14,-33.90,-43.09,-50.06,-51.56
2021/12/30 01:40:29+0000,-38.71,-42.37,-34.57,-48.23,-49.48,-51.69
2021/12/30 01:41:27+0000,-37.73,-41.76,-34.38,-48.12,-49.64,-51.96
2021/12/30 01:42:19+0000,-37.89,-42.14,-34.96,-49.06,-50.28,-52.02
2021/12/30 01:43:11+0000,-38.25,-42.68,-34.42,-48.74,-50.27,-51.57
2021/12/30 01:44:03+0000,-38.21,-44.35,-34.42,-48.56,-50.00,-51.92
2021/12/30 01:44:55+0000,-37.94,-44.13,-35.04,-48.66,-50.37,-51.37
2021/12/30 01:45:47+0000,-38.45,-43.36,-34.52,-47.98,-50.15,-51.50
2021/12/30 01:46:39+0000,-38.49,-40.93,-35.14,-48.72,-50.02,-51.55
2021/12/30 01:47:31+0000,-38.61,-44.03,-35.10,-48.48,-50.56,-51.52
2021/12/30 01:48:23+0000,-37.91,-45.07,-34.71,-48.55,-50.08,-51.05
2021/12/30 01:49:15+0000,-38.57,-40.69,-34.95,-48.31,-49.95,-51.42
2021/12/30 01:50:07+0000,-38.45,-44.85,-34.61,-48.41,-49.35,-51.80
2021/12/30 01:51:06+0000,-38.78,-44.21,-35.17,-48.64,-49.23,-51.76
2021/12/30 01:51:58+0000,-37.65,-44.04,-34.31,-48.69,-50.01,-52.36
2021/12/30 01:52:50+0000,-37.70,-41.10,-34.81,-48.23,-49.64,-52.33
2021/12/30 01:53:42+0000,-37.25,-41.00,-34.71,-49.16,-49.90,-51.62
2021/12/30 01:54:34+0000,-38.25,-44.30,-35.23,-48.69,-49.96,-52.28
2021/12/30 01:55:26+0000,-37.74,-43.18,-35.11,-48.92,-49.52,-51.99
2021/12/30 01:56:18+0000,-38.05,-44.14,-35.31,-48.97,-49.94,-51.79
2021/12/30 01:57:10+0000,-38.32,-44.49,-35.00,-48.75,-49.71,-52.27
2021/12/30 01:58:02+0000,-37.71,-44.40,-35.45,-48.47,-49.96,-51.81
2021/12/30 01:58:54+0000,-38.80,-45.01,-34.81,-48.43,-50.21,-51.56
2021/12/30 01:59:46+0000,-38.30,-43.58,-34.29,-48.65,-49.37,-51.80
2021/12/30 02:00:38+0000,-39.06,-44.78,-34.28,-48.50,-49.43,-51.89
2021/12/30 02:01:37+0000,-39.23,-42.25,-34.70,-48.35,-50.16,-52.33
2021/12/30 02:02:29+0000,-39.60,-44.72,-35.34,-48.11,-49.83,-52.01
2021/12/30 02:03:22+0000,-39.18,-45.53,-34.55,-48.75,-49.20,-52.49
2021/12/30 02:04:14+0000,-39.55,-41.34,-35.13,-48.33,-49.45,-51.80
2021/12/30 02:05:06+0000,-38.93,-45.42,-34.72,-48.91,-49.40,-51.93
2021/12/30 02:05:58+0000,-39.43,-45.22,-34.74,-48.94,-49.35,-51.62
2021/12/30 02:06:50+0000,-39.28,-46.28,-34.44,-48.56,-50.14,-52.77
2021/12/30 02:07:42+0000,-39.53,-40.74,-34.52,-47.96,-49.76,-51.89
2021/12/30 02:08:34+0000,-38.60,-45.30,-34.65,-48.67,-50.07,-52.19
2021/12/30 02:09:26+0000,-38.49,-45.38,-34.90,-48.50,-49.91,-52.06
2021/12/30 02:10:18+0000,-38.62,-42.55,-35.04,-48.24,-49.50,-51.78
2021/12/30 02:11:21+0000,-38.67,-46.37,-34.46,-48.04,-49.86,-52.01
2021/12/30 02:12:13+0000,-38.42,-42.91,-34.30,-48.82,-49.96,-52.01
2021/12/30 02:13:06+0000,-38.49,-46.99,-34.07,-48.67,-50.17,-52.32
2021/12/30 02:13:58+0000,-38.91,-44.16,-34.88,-48.46,-49.59,-52.05
2021/12/30 02:14:50+0000,-38.96,-43.06,-35.34,-48.79,-50.04,-52.27
2021/12/30 02:15:42+0000,-38.45,-44.35,-35.26,-47.96,-49.74,-51.46
2021/12/30 02:16:34+0000,-39.27,-45.00,-34.68,-48.63,-50.70,-51.98
2021/12/30 02:17:26+0000,-38.72,-44.52,-34.77,-48.65,-50.35,-51.87
2021/12/30 02:18:18+0000,-39.32,-41.76,-34.71,-48.40,-49.98,-52.57
2021/12/30 02:19:10+0000,-39.26,-44.50,-35.26,-48.53,-49.99,-51.97
2021/12/30 02:20:02+0000,-39.27,-45.30,-34.45,-47.93,-50.27,-52.14
2021/12/30 02:21:00+0000,-39.37,-45.93,-34.66,-48.86,-49.51,-51.93
2021/12/30 02:21:52+0000,-38.64,-46.11,-34.58,-48.62,-49.75,-51.85
2021/12/30 02:22:44+0000,-38.48,-42.01,-35.65,-48.58,-49.64,-51.82
2021/12/30 02:23:36+0000,-38.96,-46.14,-35.34,-48.11,-50.11,-51.98
2021/12/30 02:24:28+0000,-38.37,-45.77,-35.12,-49.13,-50.18,-51.94
2021/12/30 02:25:20+0000,-37.60,-46.18,-35.08,-47.97,-49.61,-52.02
2021/12/30 02:26:12+0000,-39.30,-42.40,-35.35,-48.93,-49.76,-51.66
2021/12/30 02:27:04+0000,-39.14,-46.37,-34.76,-48.40,-50.35,-51.98
2021/12/30 02:27:57+0000,-38.41,-46.12,-34.54,-48.08,-49.64,-51.71
2021/12/30 02:28:49+0000,-38.31,-44.00,-34.89,-49.14,-50.54,-51.88
2021/12/30 02:29:41+0000,-38.42,-44.46,-35.37,-48.96,-49.45,-51.34
2021/12/30 02:30:33+0000,-40.02,-45.87,-34.95,-48.54,-50.02,-51.74
2021/12/30 02:31:31+0000,-39.00,-45.77,-34.64,-48.24,-50.26,-51.31
2021/12/30 02:32:23+0000,-39.23,-45.78,-34.95,-48.89,-49.87,-51.88
2021/12/30 02:33:15+0000,-39.72,-42.42,-34.76,-48.70,-50.02,-51.94
2021/12/30 02:34:07+0000,-38.64,-43.11,-34.30,-47.89,-49.97,-51.93
2021/12/30 02:34:59+0000,-38.59,-46.25,-34.87,-48.08,-49.30,-52.18
2021/12/30 02:35:51+0000,-38.55,-46.33,-35.67,-48.58,-49.54,-51.91
2021/12/30 02:36:43+0000,-38.27,-42.65,-35.17,-48.37,-49.25,-51.55
2021/12/30 02:37:35+0000,-38.56,-46.44,-34.97,-48.18,-50.34,-51.87
2021/12/30 02:38:27+0000,-38.71,-45.76,-35.33,-48.30,-49.93,-51.97
2021/12/30 02:39:19+0000,-38.56,-45.75,-35.05,-48.30,-49.80,-51.96
2021/12/30 02:40:12+0000,-38.60,-42.91,-35.16,-48.37,-49.43,-52.30
2021/12/30 02:41:10+0000,-38.07,-43.00,-34.87,-48.55,-49.86,-52.35
2021/12/30 02:42:02+0000,-39.07,-45.94,-34.58,-48.95,-49.34,-52.16
2021/12/30 02:42:54+0000,-39.41,-45.80,-34.73,-48.25,-49.37,-51.81
2021/12/30 02:43:46+0000,-39.49,-43.07,-34.25,-48.36,-49.51,-51.94
2021/12/30 02:44:38+0000,-38.48,-42.73,-35.11,-48.35,-48.89,-52.66
2021/12/30 02:45:30+0000,-38.18,-45.58,-34.47,-48.67,-49.32,-52.25
2021/12/30 02:46:22+0000,-38.82,-45.52,-34.35,-48.51,-49.71,-52.16
2021/12/30 02:47:14+0000,-38.40,-42.87,-34.55,-48.63,-49.25,-52.56
2021/12/30 02:48:06+0000,-38.75,-46.03,-35.34,-48.73,-49.48,-52.04
2021/12/30 02:48:58+0000,-38.96,-45.78,-35.22,-48.96,-48.91,-52.11
2021/12/30 02:49:51+0000,-37.93,-45.57,-35.09,-48.58,-49.67,-52.00
2021/12/30 02:50:43+0000,-38.05,-43.02,-35.54,-49.09,-49.41,-51.70
2021/12/30 02:51:41+0000,-38.09,-43.44,-34.65,-48.99,-49.24,-52.37
2021/12/30 02:52:33+0000,-38.63,-45.90,-35.08,-48.34,-48.85,-52.30
2021/12/30 02:53:25+0000,-37.25,-45.70,-34.81,-47.68,-48.65,-52.55
2021/12/30 02:54:17+0000,-38.47,-43.13,-34.62,-48.63,-48.74,-51.45
2021/12/30 02:55:09+0000,-38.36,-43.00,-34.86,-48.47,-48.93,-51.97
2021/12/30 02:56:01+0000,-38.52,-45.72,-34.07,-48.39,-49.23,-52.11
2021/12/30 02:56:53+0000,-38.47,-45.70,-34.36,-48.36,-49.10,-52.65
2021/12/30 02:57:45+0000,-38.75,-42.50,-34.90,-48.52,-48.81,-51.87
2021/12/30 02:58:37+0000,-37.74,-45.87,-34.37,-48.49,-48.86,-52.18
2021/12/30 02:59:29+0000,-38.46,-45.72,-35.17,-48.82,-48.89,-51.88
2021/12/30 03:00:22+0000,-39.20,-45.88,-34.72,-48.02,-48.54,-51.99
2021/12/30 03:01:21+0000,-38.69,-46.35,-35.24,-47.99,-49.07,-52.26
2021/12/30 03:02:13+0000,-38.07,-45.47,-35.13,-48.39,-49.54,-51.26
2021/12/30 03:03:05+0000,-37.41,-46.05,-34.40,-48.41,-48.69,-52.68
2021/12/30 03:03:57+0000,-37.10,-46.09,-34.84,-48.30,-48.60,-52.38
2021/12/30 03:04:49+0000,-39.02,-45.98,-34.97,-48.64,-49.49,-51.85
2021/12/30 03:05:41+0000,-38.22,-45.72,-34.38,-48.39,-49.27,-52.38
2021/12/30 03:06:33+0000,-38.71,-45.41,-35.13,-48.20,-49.33,-52.97
2021/12/30 03:07:25+0000,-37.91,-44.28,-35.00,-47.81,-49.42,-52.44
2021/12/30 03:08:17+0000,-38.63,-43.94,-34.57,-47.95,-49.11,-52.57
2021/12/30 03:09:09+0000,-38.59,-44.66,-33.96,-48.17,-48.86,-52.20
2021/12/30 03:10:01+0000,-38.22,-44.25,-34.43,-47.97,-49.93,-52.85
2021/12/30 03:11:00+0000,-39.51,-44.79,-34.48,-48.07,-49.04,-52.51
2021/12/30 03:11:52+0000,-38.16,-44.52,-33.97,-47.63,-48.91,-52.76
2021/12/30 03:12:44+0000,-39.27,-43.62,-33.76,-47.79,-48.69,-52.37
2021/12/30 03:13:36+0000,-37.93,-45.06,-34.17,-48.38,-49.80,-52.20
2021/12/30 03:14:28+0000,-38.44,-44.65,-34.13,-48.13,-49.50,-51.65
2021/12/30 03:15:20+0000,-38.10,-44.10,-34.31,-47.91,-49.23,-52.28
2021/12/30 03:16:12+0000,-38.12,-43.81,-34.23,-47.99,-50.13,-52.44
2021/12/30 03:17:04+0000,-37.97,-44.34,-34.56,-48.22,-50.34,-51.84
2021/12/30 03:17:56+0000,-37.04,-44.73,-34.70,-47.93,-49.43,-51.97
2021/12/30 03:18:48+0000,-38.43,-44.52,-33.15,-48.21,-49.55,-51.44
2021/12/30 03:19:41+0000,-37.83,-44.80,-34.15,-48.25,-50.00,-52.03
2021/12/30 03:20:33+0000,-37.78,-43.52,-33.93,-48.11,-49.79,-52.46
2021/12/30 03:21:31+0000,-37.73,-41.84,-34.06,-48.28,-49.97,-51.89
2021/12/30 03:22:23+0000,-37.56,-41.27,-33.65,-48.22,-50.01,-52.30
2021/12/30 03:23:15+0000,-38.15,-44.12,-33.92,-48.93,-50.28,-52.01
2021/12/30 03:24:07+0000,-37.22,-44.01,-34.69,-48.72,-50.57,-52.34
2021/12/30 03:24:59+0000,-37.61,-44.15,-33.57,-48.19,-50.66,-51.97
2021/12/30 03:25:51+0000,-39.17,-44.53,-34.36,-48.36,-50.35,-52.20
2021/12/30 03:26:43+0000,-38.09,-44.17,-33.99,-48.11,-50.41,-52.54
2021/12/30 03:27:35+0000,-37.78,-43.69,-34.27,-47.97,-50.09,-51.68
2021/12/30 03:28:27+0000,-38.36,-44.39,-33.68,-48.45,-49.79,-52.27
2021/12/30 03:29:19+0000,-37.06,-44.23,-34.26,-48.52,-49.81,-51.85
2021/12/30 03:30:11+0000,-37.92,-44.50,-34.35,-48.47,-48.99,-51.91
2021/12/30 03:31:10+0000,-37.89,-44.81,-33.83,-48.40,-49.39,-51.84
2021/12/30 03:32:02+0000,-37.54,-41.97,-34.20,-48.01,-50.34,-51.79
2021/12/30 03:32:54+0000,-38.28,-41.56,-33.24,-47.46,-49.46,-52.66
2021/12/30 03:33:46+0000,-38.14,-45.71,-33.58,-48.56,-49.28,-52.31
2021/12/30 03:34:38+0000,-38.19,-45.60,-34.07,-48.29,-49.92,-52.08
2021/12/30 03:35:30+0000,-38.48,-42.77,-34.46,-48.30,-49.48,-52.10
2021/12/30 03:36:22+0000,-38.12,-45.62,-34.56,-48.16,-50.01,-52.48
2021/12/30 03:37:14+0000,-38.10,-45.51,-34.41,-48.46,-49.67,-52.10
2021/12/30 03:38:06+0000,-39.02,-46.26,-34.32,-48.22,-49.62,-52.01
2021/12/30 03:38:58+0000,-37.57,-43.90,-34.03,-48.14,-49.65,-52.53
2021/12/30 03:39:51+0000,-37.12,-44.27,-33.81,-48.88,-49.81,-51.72
2021/12/30 03:40:43+0000,-36.92,-44.96,-33.72,-48.36,-49.76,-51.25
2021/12/30 03:41:46+0000,-38.69,-43.76,-34.11,-48.26,-49.87,-51.87
2021/12/30 03:42:38+0000,-36.56,-44.70,-34.43,-47.80,-50.20,-52.11
2021/12/30 03:43:30+0000,-38.73,-42.20,-33.63,-48.51,-50.25,-52.06
2021/12/30 03:44:22+0000,-38.23,-44.64,-34.20,-47.99,-50.14,-51.90
2021/12/30 03:45:14+0000,-37.99,-44.18,-34.38,-48.24,-50.09,-52.44
2021/12/30 03:46:06+0000,-36.74,-44.05,-34.21,-48.68,-50.07,-52.38
2021/12/30 03:46:58+0000,-37.83,-41.84,-33.74,-48.74,-50.54,-51.84
2021/12/30 03:47:50+0000,-37.90,-44.71,-34.59,-48.87,-50.06,-52.19
2021/12/30 03:48:42+0000,-39.48,-43.82,-34.09,-48.24,-49.73,-52.37
2021/12/30 03:49:34+0000,-37.90,-41.67,-34.19,-47.90,-50.13,-51.90
2021/12/30 03:50:26+0000,-36.73,-41.64,-33.59,-48.64,-49.85,-52.10
2021/12/30 03:51:25+0000,-37.60,-41.62,-33.41,-48.49,-50.02,-52.18
2021/12/30 03:52:17+0000,-39.13,-44.49,-34.29,-49.08,-49.74,-51.59
2021/12/30 03:53:09+0000,-39.21,-44.43,-33.60,-48.11,-50.13,-52.06
2021/12/30 03:54:01+0000,-39.78,-41.61,-33.50,-48.49,-49.90,-52.52
2021/12/30 03:54:53+0000,-37.37,-44.76,-34.08,-48.60,-50.61,-51.26
2021/12/30 03:55:45+0000,-38.91,-44.71,-33.92,-48.41,-50.22,-51.71
2021/12/30 03:56:37+0000,-39.48,-44.30,-34.36,-48.01,-50.06,-52.31
2021/12/30 03:57:29+0000,-38.52,-41.72,-33.40,-48.25,-50.15,-51.86
2021/12/30 03:58:21+0000,-38.54,-44.66,-33.75,-48.73,-49.55,-51.83
2021/12/30 03:59:13+0000,-38.45,-44.85,-33.99,-48.21,-49.93,-51.89
2021/12/30 04:00:05+0000,-39.58,-45.33,-34.44,-48.85,-50.18,-52.00
2021/12/30 04:01:09+0000,-38.99,-45.07,-34.32,-48.46,-49.70,-51.76
2021/12/30 04:02:01+0000,-39.25,-45.65,-34.05,-48.59,-50.14,-52.00
2021/12/30 04:02:53+0000,-38.56,-45.80,-33.68,-48.59,-50.06,-51.64
2021/12/30 04:03:45+0000,-38.98,-45.10,-34.36,-48.11,-50.28,-52.16
2021/12/30 04:04:37+0000,-39.18,-45.13,-33.99,-48.57,-50.18,-52.28
2021/12/30 04:05:29+0000,-38.76,-43.00,-34.09,-48.84,-49.65,-52.77
2021/12/30 04:06:21+0000,-38.39,-45.50,-33.27,-48.96,-49.60,-52.40
2021/12/30 04:07:13+0000,-39.04,-45.69,-33.64,-48.46,-49.95,-51.80
2021/12/30 04:08:05+0000,-38.75,-45.43,-33.63,-48.57,-49.74,-52.26
2021/12/30 04:08:58+0000,-38.58,-42.86,-34.24,-48.65,-49.82,-52.14
2021/12/30 04:09:50+0000,-37.86,-45.50,-34.26,-48.86,-49.96,-52.35
2021/12/30 04:10:42+0000,-38.11,-45.87,-34.18,-48.53,-49.21,-52.05
2021/12/30 04:11:40+0000,-38.69,-45.26,-33.63,-48.92,-50.31,-51.87
2021/12/30 04:12:32+0000,-38.55,-42.68,-33.76,-48.75,-50.11,-51.38
2021/12/30 04:13:24+0000,-38.45,-42.56,-33.30,-48.37,-49.93,-51.80
2021/12/30 04:14:16+0000,-39.18,-45.14,-33.96,-48.60,-49.65,-52.07
2021/12/30 04:15:08+0000,-38.90,-45.28,-34.24,-48.54,-49.66,-51.90
2021/12/30 04:16:00+0000,-39.75,-42.63,-33.62,-48.90,-50.37,-52.15
2021/12/30 04:16:52+0000,-37.49,-42.73,-34.68,-48.64,-49.38,-51.49
2021/12/30 04:17:44+0000,-38.48,-45.18,-34.57,-48.27,-50.14,-52.58
2021/12/30 04:18:36+0000,-38.33,-45.51,-34.36,-48.80,-49.93,-51.51
2021/12/30 04:19:28+0000,-38.89,-42.24,-34.27,-48.60,-50.54,-51.50
2021/12/30 04:20:21+0000,-37.30,-45.57,-33.67,-48.53,-50.24,-51.38
2021/12/30 04:21:19+0000,-37.44,-45.55,-33.76,-48.36,-50.05,-52.56
2021/12/30 04:22:11+0000,-38.03,-45.48,-34.18,-48.01,-50.08,-51.79
2021/12/30 04:23:03+0000,-38.23,-45.14,-33.54,-48.91,-50.04,-52.75
2021/12/30 04:23:55+0000,-38.53,-45.48,-34.06,-48.37,-49.70,-51.75
2021/12/30 04:24:47+0000,-37.65,-45.69,-34.26,-48.08,-50.72,-52.19
2021/12/30 04:25:39+0000,-39.41,-45.58,-34.87,-48.11,-50.00,-52.11
2021/12/30 04:26:31+0000,-38.85,-42.30,-34.55,-48.03,-49.53,-51.54
2021/12/30 04:27:23+0000,-37.56,-42.49,-34.59,-49.06,-50.41,-52.00
2021/12/30 04:28:15+0000,-39.52,-45.27,-34.63,-49.41,-49.94,-52.23
2021/12/30 04:29:07+0000,-37.12,-45.19,-34.48,-49.23,-50.06,-52.20
2021/12/30 04:29:59+0000,-38.02,-41.82,-33.82,-48.31,-50.87,-52.45
2021/12/30 04:30:51+0000,-38.05,-44.45,-35.03,-48.86,-50.41,-52.18
2021/12/30 04:31:50+0000,-37.04,-44.10,-34.26,-48.84,-50.46,-51.88
2021/12/30 04:32:42+0000,-36.96,-44.41,-34.11,-48.96,-49.97,-52.15
2021/12/30 04:33:34+0000,-38.03,-44.04,-34.28,-49.11,-50.78,-52.71
2021/12/30 04:34:26+0000,-38.50,-44.41,-34.53,-48.74,-50.02,-52.40
2021/12/30 04:35:18+0000,-37.28,-43.41,-34.58,-48.58,-49.81,-52.78
2021/12/30 04:36:10+0000,-36.92,-44.20,-34.93,-48.76,-49.83,-51.91
2021/12/30 04:37:02+0000,-37.14,-44.09,-34.37,-49.01,-49.24,-52.21
2021/12/30 04:37:54+0000,-37.52,-44.49,-34.13,-48.50,-49.35,-52.21
2021/12/30 04:38:46+0000,-38.05,-44.14,-33.93,-48.47,-49.20,-52.57
2021/12/30 04:39:38+0000,-37.00,-44.27,-34.27,-48.64,-49.79,-52.33
2021/12/30 04:40:30+0000,-37.97,-41.53,-33.58,-48.47,-49.74,-52.32
2021/12/30 04:41:28+0000,-37.40,-41.63,-34.42,-48.65,-49.56,-51.89
2021/12/30 04:42:20+0000,-36.05,-42.97,-33.89,-48.92,-50.19,-52.17
2021/12/30 04:43:12+0000,-38.10,-43.66,-34.42,-49.12,-49.96,-52.21
2021/12/30 04:44:04+0000,-38.54,-40.40,-33.87,-48.25,-49.60,-52.46
2021/12/30 04:44:56+0000,-38.20,-40.35,-34.34,-48.35,-50.00,-51.43
2021/12/30 04:45:49+0000,-38.98,-41.77,-34.13,-49.21,-49.73,-51.91